Content
SEND FEEDBACK

Daily
Averages
Monthly
Summary
United States of America

BIG WATER, UTAH


Home > North America > United States > Utah
Elevation: 4166 feet     Latitude: 37 05N     Longitude: 111 40W

WEATHER
 
SELECT A DAY
Number of Records: 197,116;   Date Range: 1/1/95 - 10/21/14
 
SHARE

PRINT THIS DATA

[ ← Previous Day ]
WEATHER ALMANAC - APRIL 24, 2013
[ Next Day → ]
[ °C ]   °F
Weather ElementAverageHighLow
Temperature57.2 °F68 °F (3:53 pm)45 °F (4:53 am)
Dewpoint0.7 °F8.1 °F (6:53 am)-5.1 °F (1:53 pm)
Humidity11.2 %21 % (6:53 am)6 % (12:53 pm)
Barometer29.95 in30.03 in (2:53 am)29.90 in (5:53 pm)
Wind Speed4.8 mph12.7 mph (4:53 pm)
Wind Gust19.6 mph (12:53 pm)
Weather ElementAverage
Visibility10 mi
Wind DirectionENE (77.1 °)

Weather ElementTotal
Precipitation---
Heating Degree Days8.5 (Base 65)
Growing Degree Days6.5 (Base 50)
Averaged from 21 records on April 24, 2013
WEATHER CONDITIONS BREAKOUT
WIND DIRECTION BREAKOUT
WEATHER BY HOUR - APRIL 24, 2013
[ °C ]   °F
Local TimeTemperatureDewpointHumidityBarometerVisibilityWind DirectionWind SpeedGust SpeedPrecipitationEventsConditions
1:53 AM48.0 °F-2.0 °F13 %29.94 in10.0 miSSW (200°)5.8 mphClear
2:53 AM46.4 °F-0.4 °F14 %30.03 in10.0 miSW (230°)3.5 mphClear
3:53 AM46.9 °F3.0 °F16 %29.94 in10.0 miSW (220°)3.5 mphClear
4:53 AM45.0 °F0.0 °F15 %29.95 in10.0 miCalmClear
5:53 AM45.0 °F0.0 °F15 %29.96 in10.0 miCalmClear
6:53 AM46.0 °F8.1 °F21 %30.00 in10.0 miWSW (240°)3.5 mphClear
7:53 AM50.0 °F6.1 °F17 %30.01 in10.0 miCalmPartly Cloudy
8:53 AM54.0 °F5.0 °F14 %30.01 in10.0 miCalmClear
11:53 AM64.9 °F3.0 °F9 %29.99 in10.0 miNE (40°)9.2 mphClear
12:53 PM66.9 °F-2.9 °F6 %29.99 in10.0 miNE (50°)11.5 mph19.6 mphClear
1:53 PM66.9 °F-5.1 °F6 %29.97 in10.0 miNNE (20°)6.9 mphClear
2:53 PM66.9 °F-5.1 °F6 %29.95 in10.0 miNorth (10°)8.1 mph16.1 mphClear
3:53 PM68.0 °F-4.0 °F6 %29.92 in10.0 miNNE (30°)11.5 mph18.4 mphClear
4:53 PM68.0 °F-2.0 °F6 %29.91 in10.0 miNE (40°)12.7 mphClear
5:53 PM66.9 °F-0.9 °F7 %29.90 in10.0 miNE (40°)10.4 mphClear
6:53 PM64.0 °F-2.0 °F7 %29.91 in10.0 miNE (50°)4.6 mphClear
7:53 PM62.1 °F0.0 °F8 %29.91 in10.0 miENE (70°)3.5 mphClear
8:53 PM59.0 °F1.0 °F10 %29.92 in10.0 miCalmClear
9:53 PM57.0 °F3.9 °F12 %29.92 in10.0 miSE (140°)3.5 mphClear
10:53 PM55.9 °F3.0 °F12 %29.91 in10.0 miCalmClear
11:53 PM54.0 °F6.1 °F15 %29.91 in10.0 miWSW (240°)3.5 mphClear
Hourly data recorded from KPGA, located miles away from Big Water, Utah







STORIES FROM OUR PARTNERS